星链-33658 (STARLINK-33658)

导读

STARLINK-33658是美国SpaceX星链星座中的一颗卫星,于2025年3月26日发射升空,归属星链低轨互联网星座组网体系。星链项目旨在通过大规模低轨卫星部署,为全球提供高速宽带互联网服务,该卫星加入后进一步扩充了星链星座的规模,助力全球覆盖网络的搭建与服务能力提升。

基本信息
目录编号:
63384
目录名称:
STARLINK-33658
国际标识:
2025-063X
轨道中心:
EARTH
卫星名称:
星链-33658
卫星全名:
星链-33658 (STARLINK-33658)
卫星状态:
在轨 (已飞行527 天)
发射日期:
2025-03-26 UTC
国别 :
美国 (US)
星等 :
--
轨道信息
数据来源 国际轨道数据
星历时间: 2026-09-03T21:01:11+0800
19小时前
查看轨道信息
半长轴: 6840.847km
偏心率: 0.0001113
轨道倾角: 53.161°
近地点辐角 88.204°
升交点赤经 301.087°
平近点角 271.909°
近地点: 461.948km
远地点: 463.472km
周期: 93.848分钟
每日圈数: 15.34398
详细信息
固有亮度:
5
最大亮度:
2.5
卫星平台:
Starlink V1.0
覆盖范围:
全球
运营商:
太空探索技术公司
运营商所在国:
美国
制造商(研发单位):
太空探索技术公司
制造商所在国:
美国
使用方式:
暂无
卫星简介
Starlink 计划是 SpaceX 推出的全球卫星互联网项目,通过发射低轨道卫星,为全球尤其是偏远地区提供高速、低延迟的互联网服务。自 2019 年起,Starlink 已部署数千颗卫星,旨在缩小全球数字鸿沟,推动互联网普及。该项目还为军事、航空等行业提供通信支持,带来广泛经济效益。
2D轨道图
3D轨道图
轨道高度分析图
轨道倾角分析图
轨道综合分析图
查看轨道综合分析图